Terminal Aerodrome Forecast
Issued by NWS

Home | Current Version | Previous Version | Text Only | Print | Product List | Glossary On
Versions: 1 2 3 4 5 6 7 8 9 10 11 12 13
000
FTUS45 KFGZ 182300
TAFSEZ
TAF
KSEZ 182334Z 1900/1924 20006KT P6SM VCSH FEW050 SCT100
     FM190200 VRB05KT P6SM SCT100
     FM190400 05009KT P6SM FEW100
     FM191400 VRB05KT P6SM SKC
     FM192100 20008KT P6SM SCT110=

USA.gov is the U.S. government's official web portal to all federal, state and local government web resources and services.